Volver al catálogo

KOSEN 1

KOSEN-1

ActivoRadioaficionadoSSO
NORAD 49402·PAYLOAD·🇯🇵 Japan

Lanzado Nov 9, 2021 desde Uchinoura Space Center

Loading…

Próximos Pases (próximas 24 horas)

TLE

ActualizadoSource: Space-Track

Época: Sep 14, 2026, 21:26 UTC

1 49402U 21102H   26257.89367789  .00006390  00000-0  23666-3 0  9998
2 49402  97.3104 298.3400 0011680 246.4600 113.5413 15.27934368267718

Sigue KOSEN 1 en tiempo real con AllMySat

Download on the App Store